Find Starlink 31634

NORAD ID: 59330 Int'l Des: 2024-057 Owner: SPXS Country: US Constellation: starlink operational
LEOCIRCULAR

現在のビュー

3D地球を読み込み中...

About Starlink 31634

Starlink 31634 (NORAD 59330) is a starlink constellation satellite (v2 mini) launched Mar 25, 2024 by SPXS of US. It operates in LEO, CIRCULAR orbit with a mass of 730.00 kg.

Starlink 31634について

説明を読み込み中...

次回通過

Passes for default location (London). Set your location on the main map for personalized predictions.

高度履歴

Loading altitude history...

軌道要素

1 59330U 24057L 26173.42000694 -.00000800 00000-0 -19561-4 0 9998
2 59330 43.0032 315.8346 0001075 260.2070 99.8660 15.27576120125859
Epoch: Jun 22, 2026 • Age: 23 hours

現在のステータス

高度 487.0 km
速度 7.62 km/s
衛星直下点 -19.63°S, 106.82°E
打ち上げ日 Mar 25, 2024
運用期間 2.2 years
タイプ internet

技術仕様

分類 Payload
質量 730.00 kg
乾燥質量 700.00 kg
総質量 730.00 kg
長さ 0.30 m
直径 4.10 m
スパン 29.00 m
形状 Box + pan
製造者 SPXS
バスタイプ Starlink V2M
フェーズステータス In Orbit
所有者/国 SPXS/US

Most Searched